CAPE
877 1386 1330 1155 1303 896 274 18 15 0 61 53 174 205 111 38 0 0 379 19 1 238 656 2659 3290 2725 2302 2413 2392 2234 2425 2332 1965 2311 2430 2301 2604 2214 1658 1663 1469 1364 1296 1094 1193 999 1150 1363 1479
965 1239 1012 1272 1164 9 5 5 15 164 135 222 269 208 367 740 705 537 464 555 425 517 1595 2429 3290 3145 2625 2763 2603 2525 1915 2141 2006 2090 1849 1905 2402 2258 1517 1342 1282 1396 1128 1050 1204 1168 1444 1404 1362
1238 1017 1552 1578 341 245 32 88 48 329 311 286 393 454 744 947 629 550 959 967 709 1232 1943 2298 3040 3036 2597 2859 2804 2469 2569 2146 1860 2097 2023 1918 2000 1888 1705 1675 1764 1383 1227 1228 1423 1498 1517 1367 1065
1370 1606 930 213 162 195 41 27 35 146 276 399 471 560 797 831 573 841 1210 1204 1161 1616 1860 2711 3166 2748 2806 2568 2635 2266 2149 2237 2073 2198 1926 1553 1968 1963 1829 1799 1661 1750 1633 1691 1640 1594 1613 847 808
1016 35 13 80 13 29 26 23 58 127 318 591 675 621 813 782 1022 1121 1326 1295 1383 1536 1643 2367 3289 3148 3095 2732 2550 2622 2540 2206 2132 2142 1883 1521 1851 1791 1700 1808 1751 1681 1731 1708 1716 1468 1587 952 1190
53 0 2 77 52 13 0 3 22 48 498 847 723 707 798 1021 1150 1166 1160 1152 1244 1393 1746 2323 2912 3120 2829 2514 2461 2343 2199 2063 2198 2252 2100 1975 2029 1815 1951 1625 1896 1780 1664 1702 1649 1535 1302 818 1015
142 18 129 119 5 33 18 8 44 192 775 799 808 668 827 1021 1058 1092 972 840 1097 1206 1892 2217 2250 2270 2504 2620 2574 2379 2021 2396 2009 1889 1899 2022 2005 1801 1752 1653 1253 1740 1416 1649 1282 688 1276 756 578
193 137 195 52 0 25 8 1 37 164 268 852 781 597 828 977 1020 995 780 681 865 1172 1744 2020 2094 1831 1956 2107 2971 2974 2936 2232 1856 1933 1917 1919 1835 1739 1795 2170 1663 1722 1146 802 935 1399 1556 1296 1099
543 49 59 16 49 35 15 4 85 261 131 212 745 675 562 977 1081 930 644 892 1007 1194 1554 1757 1823 1665 1690 1726 1941 2647 1898 1800 2671 2155 2075 2016 1444 1381 1345 1620 1407 681 1282 1377 1383 1633 1584 1421 887
1428 363 125 108 114 130 95 34 64 62 62 34 225 615 1033 1022 1117 895 778 950 1059 1070 1308 1568 1619 1668 1728 1773 1790 1989 1870 1888 1983 1951 1666 1803 1602 1409 1548 1632 1769 584 1534 1350 1528 1239 1252 829 461
1163 996 542 520 341 392 211 112 41 74 74 89 691 612 1012 1082 1109 975 954 980 974 923 1144 1363 1395 1694 1687 1607 1458 1466 1323 1563 1818 2017 1474 1359 1261 1671 1853 1489 1568 629 1472 1226 1396 1382 883 625 963
100 137 134 167 245 319 173 92 51 64 88 109 423 648 945 1089 1145 1050 1015 985 916 787 975 1153 1107 1533 1654 1466 1617 1423 1341 1235 1326 1537 1300 1718 1137 1534 1782 1443 1384 1187 578 1340 1420 1078 1445 1120 805
0 0 0 0 0 98 214 112 82 100 60 79 521 642 1004 1169 1145 1175 1036 983 850 771 863 1008 1004 1074 1219 1237 1496 1532 1509 1338 1301 1668 1355 1432 1376 1062 1314 1467 1179 1380 876 498 1021 1305 1127 943 920
0 0 0 0 0 0 67 47 25 0 0 16 578 630 779 1286 1556 1418 1148 981 879 843 978 1043 997 908 938 943 909 1141 1429 1629 1241 1157 1435 1413 1168 885 1017 1258 1268 1289 1279 899 417 936 1097 928 717
0 0 0 0 0 0 0 0 0 0 238 639 631 616 665 854 1009 1328 1385 1063 965 943 1100 1128 883 829 774 846 691 724 711 1145 1496 1113 1046 1274 1013 916 844 878 950 1176 1162 1162 638 301 602 603 557
0 0 0 0 0 0 0 0 0 0 0 0 630 621 694 725 669 815 1538 1290 1079 1077 1258 1220 941 854 779 860 837 509 480 803 905 925 914 1043 1002 819 720 701 750 841 887 925 798 248 29 51 41
0 0 0 0 0 0 0 0 0 0 0 0 490 676 716 800 654 713 829 1535 1384 1339 1423 1301 1056 907 848 913 970 750 531 656 937 940 939 901 927 889 834 489 519 721 734 777 589 529 465 374 26
0 0 0 0 0 0 0 0 0 0 0 0 1 436 787 823 831 742 860 892 1380 1465 1504 1380 1153 1016 927 957 1099 930 835 771 795 864 931 987 875 769 848 755 732 695 753 747 637 489 367 330 332
0 0 0 0 0 0 0 0 0 0 0 0 198 135 468 882 915 849 965 960 866 1334 1387 1383 1258 1249 1035 991 1185 1135 1021 936 825 794 850 1049 1049 831 738 883 1146 983 804 773 486 420 253 267 251
0 0 0 0 0 0 0 0 0 0 0 0 0 369 355 491 845 1010 1169 1123 1103 1053 1089 1367 1332 1387 1243 1078 1100 1318 1155 1105 919 921 1033 1124 880 934 1048 826 1126 1022 716 642 552 292 238 251 202
0 0 0 0 0 0 0 0 0 0 0 0 0 0 4 207 674 1109 1138 1266 1339 1222 1227 1477 1457 1513 1409 1233 1132 1473 1425 1299 1206 1097 1143 1132 866 779 339 661 1006 870 727 655 497 313 200 196 222
0 0 0 0 0 0 0 0 0 0 0 0 0 0 2 297 596 706 321 994 1400 1399 1354 1417 1567 1617 1485 1323 1212 1299 1456 1376 1360 1248 1264 1085 1051 970 727 523 744 938 795 602 463 284 178 167 155
0 0 0 0 0 0 0 0 0 0 0 0 0 0 5 64 399 1186 1272 1139 1319 1439 1394 1348 1632 1636 1505 1367 1281 1163 1266 1258 1249 1241 1199 1135 1084 1013 969 841 776 728 695 636 504 378 382 174 173
0 0 0 0 0 0 0 0 0 0 1 0 0 0 29 78 180 470 965 1256 1361 1470 1398 1382 1393 1626 1520 1446 1340 1253 1167 1107 1054 1028 1087 951 989 1074 1031 1037 964 884 801 715 598 369 462 525 209
0 0 0 0 0 0 0 0 0 5 28 9 0 1 166 160 214 566 583 1015 1539 1471 1014 1447 1470 1418 1570 1464 1400 1240 1173 1093 1048 988 937 918 900 1053 1084 1091 1062 983 914 761 573 350 345 243 250
0 0 0 0 0 0 0 0 0 23 54 30 10 17 52 556 833 439 406 453 1606 1586 1189 1475 1472 1365 1562 1494 1408 1355 1205 1179 1076 996 800 776 722 913 1005 1214 1096 1021 979 714 551 376 198 130 246
0 0 0 0 0 0 0 0 0 23 24 29 112 384 390 247 1049 746 446 356 658 1667 1998 1721 1548 1498 1734 1698 1541 1502 1292 1170 1151 1088 936 759 756 836 1077 1233 1237 1193 1151 961 582 424 277 153 115
0 0 0 0 0 0 0 0 0 0 14 42 265 355 696 946 1100 976 1122 722 354 1046 2094 2133 2048 1903 1878 2068 1882 1614 1559 1341 1204 1080 1030 968 891 815 1009 1212 1252 1219 1236 1138 1046 1072 751 318 121
0 0 0 0 0 0 0 0 0 3 47 53 68 35 780 1143 1243 986 944 756 337 297 1485 2055 2140 2084 1879 1541 2031 2016 1860 1675 1480 1331 1158 972 937 944 1055 1203 1216 1476 1321 1360 1382 1152 722 251 119
0 0 0 0 0 0 0 0 69 46 25 134 28 3 348 968 391 280 884 772 724 130 569 1149 1893 1970 1562 1417 1364 2037 2034 1957 1772 1548 1367 1474 1119 1100 1196 1142 1207 1396 1495 1347 1196 660 291 252 374
CIN
-185 -129 -129 -130 -83 -127 -142 -37 -90 -0 -132 -143 -92 -79 -88 -174 -0 -0 -166 -60 -11 -247 -124 -1 -0 -0 -0 -0 -0 -0 -0 -0 -0 -0 -0 -0 -0 -0 -0 -0 -0 -0 -0 -0 -0 -0 -0 -0 -0
-244 -173 -230 -129 -91 -74 -31 -43 -76 -100 -141 -83 -145 -162 -155 -115 -189 -284 -287 -223 -218 -219 -72 -5 -0 -0 -0 -0 -0 -0 -0 -0 -0 -0 -0 -0 -0 -0 -0 -0 -0 -0 -2 -0 -0 -0 -0 -0 -0
-178 -231 -118 -111 -152 -52 -72 -143 -92 -88 -107 -106 -165 -168 -148 -144 -236 -279 -219 -221 -208 -135 -63 -18 -0 -0 -0 -0 -0 -0 -0 -0 -0 -0 -0 -0 -0 -0 -0 -0 -0 -0 -0 -0 -0 -0 -1 -0 -0
-145 -150 -162 -188 -116 -55 -99 -62 -33 -149 -110 -121 -163 -214 -208 -254 -315 -255 -213 -180 -177 -118 -82 -1 -0 -0 -0 -0 -0 -0 -0 -0 -0 -0 -0 -0 -0 -0 -0 -0 -4 -0 -0 -0 -0 -0 -0 -1 -0
-202 -331 -16 -145 -42 -13 -114 -54 -51 -44 -59 -139 -201 -238 -268 -314 -318 -271 -218 -164 -145 -114 -92 -15 -0 -0 -0 -0 -0 -0 -0 -0 -6 -0 -0 -0 -0 -0 -0 -2 -0 -0 -0 -0 -0 -0 -0 -0 -0
-61 -0 -40 -152 -106 -26 -4 -8 -31 -24 -57 -106 -171 -249 -249 -363 -346 -296 -221 -207 -154 -140 -57 -17 -0 -0 -0 -0 -0 -0 -0 -0 -0 -0 -0 -0 -0 -0 -0 -0 -0 -0 -0 -0 -0 -0 -0 -3 -1
-48 -338 -239 -136 -36 -33 -59 -19 -17 -50 -51 -75 -145 -183 -324 -367 -330 -329 -283 -241 -159 -116 -55 -18 -10 -2 -0 -0 -0 -0 -0 -0 -0 -0 -0 -0 -0 -0 -0 -0 -0 -0 -0 -0 -0 -10 -0 -8 -19
-49 -365 -218 -270 -4 -159 -131 -33 -38 -49 -108 -102 -125 -116 -249 -293 -346 -324 -287 -276 -213 -99 -41 -28 -11 -13 -2 -1 -0 -0 -0 -0 -0 -0 -0 -0 -0 -0 -0 -0 -0 -0 -0 -0 -0 -0 -0 -0 -3
-39 -120 -261 -117 -167 -187 -72 -3 -131 -91 -188 -229 -134 -173 -222 -258 -358 -368 -374 -241 -131 -77 -38 -29 -30 -39 -21 -16 -1 -0 -0 -0 -0 -0 -0 -0 -1 -0 -3 -1 -0 -10 -0 -0 -0 -0 -0 -0 -14
-66 -59 -85 -129 -143 -181 -46 -19 -75 -201 -30 -38 -17 -196 -351 -365 -417 -409 -415 -290 -185 -120 -84 -51 -45 -42 -28 -14 -12 -1 -1 -2 -1 -2 -5 -1 -1 -1 -6 -2 -0 -7 -0 -0 -0 -3 -0 -6 -41
-74 -63 -39 -54 -66 -38 -74 -84 -82 -66 -50 -57 -234 -61 -310 -377 -393 -399 -432 -391 -347 -266 -143 -99 -77 -49 -36 -38 -52 -30 -40 -20 -0 -1 -6 -11 -21 -2 -0 -3 -0 -16 -1 -1 -1 -1 -28 -15 -18
-186 -145 -162 -222 -192 -167 -188 -192 -169 -148 -120 -98 -363 -135 -413 -337 -416 -359 -500 -445 -392 -354 -285 -166 -125 -56 -50 -60 -46 -65 -68 -60 -45 -12 -14 -1 -24 -1 -1 -1 -0 -0 -35 -1 -0 -13 -1 -12 -38
-0 -0 -0 -0 -0 -319 -247 -235 -226 -173 -189 -174 -326 -319 -428 -454 -392 -431 -478 -475 -450 -395 -200 -303 -203 -151 -110 -88 -56 -63 -64 -77 -66 -19 -40 -21 -12 -42 -11 -3 -17 -2 -11 -42 -18 -12 -20 -32 -36
-0 -0 -0 -0 -0 -0 -293 -303 -312 -0 -0 -183 -316 -321 -355 -313 -304 -317 -367 -496 -474 -265 -202 -179 -327 -289 -223 -183 -168 -118 -77 -55 -78 -78 -43 -30 -51 -61 -41 -22 -19 -10 -9 -29 -71 -41 -27 -45 -58
-0 -0 -0 -0 -0 -0 -0 -0 -0 -0 -205 -243 -206 -184 -301 -370 -528 -506 -513 -509 -533 -282 -220 -218 -431 -381 -357 -299 -274 -208 -205 -119 -65 -98 -99 -53 -75 -65 -61 -56 -46 -38 -36 -21 -41 -78 -39 -51 -54
-0 -0 -0 -0 -0 -0 -0 -0 -0 -0 -0 -0 -250 -263 -308 -312 -446 -521 -535 -474 -516 -286 -264 -243 -241 -418 -387 -332 -279 -318 -285 -195 -161 -147 -131 -87 -91 -85 -65 -58 -68 -54 -50 -38 -40 -74 -136 -130 -117
-0 -0 -0 -0 -0 -0 -0 -0 -0 -0 -0 -0 -237 -279 -331 -247 -334 -421 -444 -472 -478 -305 -279 -253 -250 -240 -416 -342 -286 -281 -319 -260 -172 -141 -125 -106 -93 -88 -63 -46 -124 -50 -57 -44 -50 -50 -42 -33 -107
-0 -0 -0 -0 -0 -0 -0 -0 -0 -0 -0 -0 -5 -274 -299 -233 -171 -270 -149 -477 -447 -409 -307 -283 -274 -389 -426 -375 -274 -266 -241 -251 -209 -162 -123 -100 -93 -94 -58 -50 -34 -32 -36 -25 -43 -37 -35 -47 -35
-0 -0 -0 -0 -0 -0 -0 -0 -0 -0 -0 -0 -224 -206 -259 -203 -253 -169 -117 -85 -146 -468 -435 -365 -327 -440 -409 -383 -306 -256 -255 -199 -220 -173 -122 -76 -50 -30 -64 -60 -29 -29 -23 -28 -76 -34 -37 -35 -42
-0 -0 -0 -0 -0 -0 -0 -0 -0 -0 -0 -0 -0 -152 -127 -236 -205 -204 -236 -204 -145 -115 -341 -554 -502 -489 -446 -293 -362 -302 -277 -236 -219 -162 -119 -68 -115 -65 -45 -103 -33 -29 -30 -27 -33 -49 -39 -35 -41
-0 -0 -0 -0 -0 -0 -0 -0 -0 -0 -0 -0 -0 -0 -40 -110 -113 -129 -112 -253 -238 -168 -317 -569 -576 -509 -432 -345 -285 -298 -272 -246 -200 -161 -125 -102 -92 -107 -96 -154 -35 -17 -14 -24 -16 -30 -53 -52 -43
-0 -0 -0 -0 -0 -0 -0 -0 -0 -0 -0 -0 -0 -0 -110 -160 -169 -192 -157 -172 -168 -282 -189 -528 -464 -505 -414 -344 -294 -392 -375 -341 -268 -229 -158 -116 -79 -72 -71 -188 -99 -31 -21 -25 -23 -24 -36 -68 -42
-0 -0 -0 -0 -0 -0 -0 -0 -0 -0 -0 -0 -0 -0 -182 -126 -105 -79 -157 -124 -243 -252 -260 -224 -445 -431 -424 -382 -330 -313 -392 -386 -327 -260 -209 -163 -129 -121 -96 -156 -113 -82 -52 -31 -27 -31 -23 -36 -85
-0 -0 -0 -0 -0 -0 -0 -0 -0 -0 -44 -0 -0 -0 -140 -106 -571 -405 -108 -107 -136 -161 -222 -242 -223 -365 -350 -370 -329 -347 -326 -372 -371 -345 -282 -244 -212 -155 -133 -134 -94 -81 -59 -41 -26 -16 -35 -19 -108
-0 -0 -0 -0 -0 -0 -0 -0 -0 -119 -321 -458 -0 -53 -397 -311 -391 -419 -462 -256 -172 -182 -193 -302 -258 -360 -345 -296 -257 -228 -209 -223 -246 -270 -300 -266 -273 -222 -203 -135 -86 -77 -86 -66 -42 -26 -12 -44 -67
-0 -0 -0 -0 -0 -0 -0 -0 -0 -209 -303 -410 -424 -481 -424 -298 -233 -188 -396 -337 -198 -127 -344 -303 -286 -272 -352 -297 -238 -238 -168 -212 -206 -196 -222 -275 -278 -240 -200 -158 -134 -94 -58 -34 -43 -34 -41 -45 -20
-0 -0 -0 -0 -0 -0 -0 -0 -0 -237 -270 -398 -301 -280 -346 -357 -260 -197 -131 -233 -278 -175 -215 -335 -376 -327 -270 -261 -213 -190 -203 -204 -211 -188 -204 -267 -230 -229 -178 -165 -143 -108 -83 -38 -13 -9 -5 -34 -50
-0 -0 -0 -0 -0 -0 -0 -0 -0 -0 -123 -325 -279 -312 -264 -243 -266 -259 -236 -355 -465 -197 -93 -94 -115 -187 -169 -129 -133 -138 -190 -168 -178 -171 -243 -223 -217 -193 -201 -172 -142 -111 -83 -50 -0 -1 -6 -7 -109
-0 -0 -0 -0 -0 -0 -0 -0 -0 -23 -193 -299 -251 -171 -244 -212 -249 -290 -294 -269 -473 -293 -67 -13 -26 -42 -60 -160 -116 -75 -153 -158 -175 -157 -140 -197 -204 -168 -191 -166 -147 -14 -9 -31 -10 -3 -20 -72 -157
-0 -0 -0 -0 -0 -0 -0 -0 -79 -173 -276 -252 -351 -22 -310 -198 -419 -374 -223 -298 -400 -362 -197 -48 -5 -33 -64 -101 -280 -145 -128 -140 -130 -111 -109 -99 -135 -164 -80 -148 -114 -39 -8 -29 -29 -69 -117 -137 -108
Wind_Speed
14 2 14 17 20 25 36 nan nan nan nan nan 33 35 37 nan nan nan 16 nan nan 13 9 9 13 14 15 8 10 19 23 22 18 6 6 9 9 5 8 6 6 5 7 7 6 5 4 3 4
12 16 3 13 15 nan nan nan nan 30 33 34 31 31 29 27 24 21 24 21 18 14 11 11 14 15 18 17 10 16 12 9 8 9 9 9 9 9 6 4 5 4 6 6 8 5 3 3 5
17 19 11 6 8 9 nan nan nan 30 37 38 30 28 28 31 24 31 23 27 20 14 9 8 14 14 14 15 15 8 17 18 13 10 11 9 11 9 7 4 4 4 4 6 9 6 4 4 4
13 15 19 12 7 7 nan nan nan 26 24 20 24 26 28 33 36 30 32 24 23 15 9 12 11 11 10 9 10 11 8 6 11 8 10 7 10 8 6 4 3 4 4 6 7 7 5 6 5
8 nan nan nan nan nan nan nan nan 21 24 15 29 26 29 32 31 36 34 27 19 19 15 11 11 8 8 7 5 5 5 6 7 8 6 9 10 8 5 5 4 4 4 6 7 6 6 7 6
nan nan nan nan nan nan nan nan nan nan 10 26 21 25 28 34 42 37 32 28 24 16 16 14 13 9 6 7 6 5 4 3 2 1 2 4 5 5 6 5 4 5 4 5 7 6 7 6 5
13 nan 16 15 nan nan nan nan nan 9 17 22 21 21 26 33 44 41 35 27 25 24 12 10 8 8 9 5 5 5 5 4 1 1 1 2 3 3 2 5 5 5 7 7 6 6 6 6 5
12 12 16 nan nan nan nan nan nan 21 24 23 26 23 24 33 43 41 33 32 25 28 23 5 5 2 4 4 5 3 3 1 2 2 2 2 3 3 2 5 6 6 6 5 4 4 4 5 5
12 nan nan nan nan nan nan nan nan 13 21 23 27 24 31 37 39 40 35 29 24 29 28 5 2 1 0 4 4 2 4 3 1 3 4 3 8 4 2 4 5 6 3 5 4 4 5 5 4
13 16 21 15 9 8 nan nan nan nan nan nan 19 17 23 33 37 40 39 35 32 34 35 16 5 3 3 2 2 8 7 7 8 9 10 11 11 10 9 6 5 5 5 5 3 2 5 6 10
19 20 20 17 20 16 8 8 nan nan nan nan 13 34 23 30 30 37 35 36 38 36 34 29 17 9 8 5 4 5 10 11 12 11 12 12 13 13 13 12 11 9 3 8 6 7 10 10 9
17 21 20 13 12 8 9 nan nan nan nan 12 18 30 31 39 34 32 34 36 31 35 36 33 27 20 12 7 5 3 3 8 12 12 12 14 15 15 15 15 15 12 12 10 10 10 9 9 8
nan nan nan nan nan nan 14 7 nan 9 nan nan 20 23 29 37 19 16 25 29 31 31 34 34 31 27 24 15 9 6 3 2 6 12 13 15 15 14 16 15 16 15 13 11 10 10 11 10 8
nan nan nan nan nan nan nan nan nan nan nan nan 24 22 20 28 36 18 15 27 31 31 29 29 32 32 28 20 16 9 7 2 9 11 12 14 16 16 15 15 17 15 15 14 13 12 11 12 11
nan nan nan nan nan nan nan nan nan nan 15 19 18 20 20 29 40 48 24 23 34 31 30 29 30 31 31 30 19 13 10 12 3 6 13 12 15 17 16 16 16 14 15 16 16 15 15 14 13
nan nan nan nan nan nan nan nan nan nan nan nan 21 21 21 26 29 36 44 32 18 26 29 27 24 28 30 29 24 16 12 9 9 10 7 9 13 13 15 18 18 19 20 18 17 18 nan nan nan
nan nan nan nan nan nan nan nan nan nan nan nan 16 20 14 17 15 25 31 30 16 19 22 24 27 26 29 27 24 20 18 11 11 9 8 7 8 8 12 17 17 19 19 19 21 20 20 17 nan
nan nan nan nan nan nan nan nan nan nan nan nan nan 18 13 6 8 14 16 24 28 16 21 20 21 24 23 23 21 20 15 14 13 13 9 8 4 4 7 11 13 17 17 17 20 19 21 22 21
nan nan nan nan nan nan nan nan nan nan nan nan 23 22 20 16 24 14 9 6 11 10 11 21 19 20 18 19 20 20 19 16 13 14 15 9 6 7 4 4 6 10 9 10 14 21 21 22 25
nan nan nan nan nan nan nan nan nan nan nan nan nan 27 18 16 26 19 20 15 8 9 7 12 19 19 16 17 16 14 17 13 13 12 14 14 11 10 8 7 7 9 11 13 17 19 23 24 27
nan nan nan nan nan nan nan nan nan nan nan nan nan nan nan 27 19 17 27 26 13 9 15 16 13 15 18 17 11 12 14 13 12 11 11 14 15 12 10 11 11 13 16 14 15 18 22 22 24
nan nan nan nan nan nan nan nan nan nan nan nan nan nan nan 29 28 34 25 20 13 9 9 11 12 19 16 17 12 13 14 15 13 14 10 9 13 14 11 10 11 11 14 14 15 16 18 23 20
nan nan nan nan nan nan nan nan nan nan nan nan nan nan nan nan 36 40 34 46 32 23 24 21 18 19 21 19 14 7 10 11 11 12 16 16 14 16 16 15 12 12 13 12 17 18 16 19 23
nan nan nan nan nan nan nan nan nan nan nan nan nan nan nan nan 24 29 38 42 45 42 30 37 36 26 25 18 21 2 5 11 12 13 14 15 14 15 17 18 17 14 11 13 10 14 16 20 20
nan nan nan nan nan nan nan nan nan nan nan nan nan nan 22 26 20 20 29 38 34 50 30 33 40 41 28 25 24 18 16 12 11 11 13 17 15 13 15 18 19 15 13 11 14 21 20 22 17
nan nan nan nan nan nan nan nan nan nan nan nan nan nan nan 29 31 33 31 32 33 39 34 44 45 51 37 37 30 27 24 22 18 15 13 10 14 14 15 18 19 21 15 10 12 12 11 13 13
nan nan nan nan nan nan nan nan nan nan nan nan 25 29 27 26 31 34 29 22 23 35 42 44 49 46 43 40 34 37 29 20 21 21 18 16 12 14 19 19 18 18 16 13 11 5 3 5 11
nan nan nan nan nan nan nan nan nan nan nan nan 30 27 20 24 25 23 25 26 24 35 45 54 53 54 50 44 37 33 30 24 24 23 17 17 20 19 20 23 19 16 17 17 12 6 4 6 8
nan nan nan nan nan nan nan nan nan nan nan nan nan nan 19 16 17 11 12 19 21 25 37 43 47 47 49 49 41 35 33 24 23 24 20 19 22 26 23 23 24 17 17 17 15 13 11 8 9
nan nan nan nan nan nan nan nan nan nan nan 30 nan nan 20 18 18 17 15 10 18 24 25 28 42 52 50 46 47 41 36 32 32 29 24 28 27 31 29 25 25 23 19 18 16 14 12 9 10
Wind_Direction
36 76 95 66 76 79 72 nan nan nan nan nan 12 25 27 nan nan nan 353 nan nan 348 13 29 57 46 47 66 256 247 250 224 212 181 190 180 201 219 229 229 239 216 214 217 201 202 190 179 148
327 308 41 65 74 nan nan nan nan 44 29 17 17 13 18 30 27 354 341 356 344 341 5 12 38 61 48 40 28 169 162 165 169 188 182 186 205 207 232 235 236 219 209 191 178 168 152 185 174
319 332 22 63 92 85 nan nan nan 48 17 26 13 22 16 10 13 12 8 341 340 346 350 14 13 36 36 32 37 61 174 158 169 161 152 194 217 202 207 206 193 205 180 183 169 162 179 197 192
324 337 339 338 79 169 nan nan nan 91 53 27 10 7 19 17 4 17 359 348 334 346 336 355 10 17 25 26 37 37 44 160 159 191 203 169 220 209 213 202 238 223 203 202 191 170 197 211 195
284 nan nan nan nan nan nan nan nan 76 87 69 37 12 2 1 352 359 2 14 345 339 341 348 352 357 17 28 1 8 43 55 158 152 181 217 213 213 216 215 227 239 224 205 200 195 212 220 209
nan nan nan nan nan nan nan nan nan nan 59 63 41 15 9 359 348 3 5 11 19 348 330 341 347 333 348 11 16 17 21 98 111 144 124 220 216 236 208 228 213 228 220 200 196 192 205 231 213
323 nan 344 343 nan nan nan nan nan 1 77 70 51 48 33 16 357 360 2 5 7 15 351 312 340 332 327 349 3 7 14 25 104 296 222 250 299 270 259 232 231 229 212 205 197 185 208 239 252
356 329 343 nan nan nan nan nan nan 4 25 56 37 30 56 14 357 353 358 1 5 6 8 291 283 346 283 236 333 356 33 13 225 221 325 315 323 343 345 258 241 235 242 221 190 187 189 214 234
14 nan nan nan nan nan nan nan nan 40 20 25 31 31 16 13 356 352 351 360 7 13 11 31 234 161 184 239 238 298 351 48 271 256 265 262 198 198 220 261 294 284 263 268 211 183 181 178 189
358 356 22 28 41 77 nan nan nan nan nan nan 39 351 357 2 355 354 350 3 9 18 22 36 78 119 94 18 236 220 202 190 187 186 218 211 219 219 222 255 323 321 318 316 306 228 183 183 191
4 10 6 36 46 45 141 144 nan nan nan nan 18 305 1 6 358 352 357 2 12 20 28 29 44 56 57 66 140 179 194 203 204 211 205 211 218 226 225 214 218 219 262 225 233 214 217 205 200
358 16 13 24 31 55 37 nan nan nan nan 353 356 354 343 10 354 359 355 1 12 22 29 33 29 39 48 76 91 74 183 207 213 215 224 218 216 221 233 229 227 230 214 225 224 229 222 231 208
nan nan nan nan nan nan 35 92 nan 338 nan nan 328 342 350 338 4 38 352 0 360 19 33 33 31 34 34 47 52 65 65 207 227 223 229 230 223 222 226 232 240 244 247 240 230 231 233 238 220
nan nan nan nan nan nan nan nan nan nan nan nan 329 339 324 300 314 33 46 356 4 6 22 22 27 30 23 31 25 37 44 312 215 219 220 228 233 232 231 230 235 240 246 244 241 236 235 237 240
nan nan nan nan nan nan nan nan nan nan 237 285 327 342 313 337 351 350 18 23 352 3 1 15 19 25 25 21 16 21 26 37 14 279 227 221 218 227 241 234 229 233 239 248 245 239 233 234 231
nan nan nan nan nan nan nan nan nan nan nan nan 321 327 354 15 358 352 347 337 9 348 353 353 7 18 17 16 18 20 25 13 18 38 215 248 237 232 231 232 233 236 239 240 242 243 nan nan nan
nan nan nan nan nan nan nan nan nan nan nan nan 302 326 353 22 5 7 349 350 348 338 343 350 353 4 13 11 13 23 22 18 17 32 27 25 230 244 242 244 241 243 241 245 243 240 248 243 nan
nan nan nan nan nan nan nan nan nan nan nan nan nan 306 319 338 38 5 6 341 342 342 330 342 346 358 11 357 358 12 24 27 30 38 29 29 59 281 248 241 246 248 239 237 245 243 241 247 248
nan nan nan nan nan nan nan nan nan nan nan nan 249 276 285 310 318 16 304 276 323 3 329 329 337 342 355 351 345 351 11 22 30 29 19 7 341 308 316 256 265 266 267 266 252 248 247 238 246
nan nan nan nan nan nan nan nan nan nan nan nan nan 248 269 257 253 270 261 282 298 285 341 336 329 332 333 344 330 333 344 360 21 25 23 9 348 316 307 285 276 282 265 259 258 253 246 239 245
nan nan nan nan nan nan nan nan nan nan nan nan nan nan nan 244 238 254 274 292 288 294 310 331 314 323 326 334 314 284 292 301 336 13 26 15 8 352 339 323 300 283 269 263 255 263 258 257 244
nan nan nan nan nan nan nan nan nan nan nan nan nan nan nan 234 231 228 237 251 272 279 244 261 275 302 303 311 313 331 314 328 343 346 349 356 359 357 345 328 314 297 271 257 250 248 247 250 249
nan nan nan nan nan nan nan nan nan nan nan nan nan nan nan nan 247 238 219 233 234 251 259 252 252 276 287 289 281 291 316 308 322 333 328 333 340 349 348 345 331 320 290 284 265 259 257 247 238
nan nan nan nan nan nan nan nan nan nan nan nan nan nan nan nan 258 260 255 245 229 219 245 263 271 271 273 256 285 314 318 306 307 308 307 313 315 331 339 343 343 337 318 301 266 285 278 265 249
nan nan nan nan nan nan nan nan nan nan nan nan nan nan 285 283 280 262 266 256 247 224 239 256 271 268 246 235 246 195 232 232 241 287 301 300 302 310 341 343 348 339 356 341 279 264 271 270 257
nan nan nan nan nan nan nan nan nan nan nan nan nan nan nan 293 305 295 290 237 226 215 233 251 256 267 249 236 235 234 204 233 242 257 270 281 308 314 316 334 342 346 343 330 307 350 268 251 244
nan nan nan nan nan nan nan nan nan nan nan nan 286 283 288 283 290 298 296 302 219 222 220 235 246 255 241 240 230 247 226 213 241 256 256 271 284 298 307 318 334 340 336 315 318 340 20 269 255
nan nan nan nan nan nan nan nan nan nan nan nan 292 286 283 270 271 286 299 312 255 224 231 231 245 256 238 231 242 243 265 223 237 243 264 287 286 288 294 305 310 326 325 310 304 303 260 266 262
nan nan nan nan nan nan nan nan nan nan nan nan nan nan 290 290 243 261 323 298 278 244 249 244 237 246 239 233 238 240 253 239 238 242 244 251 268 277 280 292 295 305 313 305 287 266 267 281 270
nan nan nan nan nan nan nan nan nan nan nan 306 nan nan 293 279 262 277 306 318 260 265 251 240 232 235 230 223 242 243 251 245 238 241 246 246 253 256 267 273 281 288 287 291 290 289 281 281 282